Regional Weather Roundup
Issued by NWS

Home | Current Version | Previous Version | Graphics & Text | Print | Product List | Glossary Off
Versions: 1 2 3 4 5 6 7 8 9 10 11 12 13 14 15 16 17 18 19 20 21 22 23 24 25 26 27 28 29 30 31 32 33 34 35 36 37 38 39 40 41 42 43 44 45 46 47 48 49 50

000
ASUS43 KDMX 041006
RWRIA

WEATHER ROUNDUP FOR IOWA
NATIONAL WEATHER SERVICE DES MOINES IA
400 AM CST SUN DEC 04 2016

NOTE: "FAIR" INDICATES FEW OR NO CLOUDS BELOW 12,000 FEET WITH NO
SIGNIFICANT WEATHER AND/OR OBSTRUCTIONS TO VISIBILITY.

* - THESE STATIONS ARE NOT NWS STATIONS...THUS NOT UNDER NWS
QUALITY CONTROL.  THEY ALSO DO NOT REPORT WEATHER SUCH
AS PRECIPITATION OR FOG.

IAZ001>003-012>014-020>022-031>034-043>046-041100-
   NORTHWEST IOWA

CITY           SKY/WX    TMP DP  RH WIND       PRES   REMARKS
CARROLL *      CLOUDY    34  34 100 S9        29.99S FOG     WCI  26
CHEROKEE *     CLOUDY    33  33 100 S6        29.96F WCI  28
DENISON *      CLOUDY    34  34 100 SW7       29.97F FOG     WCI  28
LE MARS *      CLOUDY    34  34 100 S8        29.97F WCI  27
ORANGE CITY *  CLOUDY    34  34 100 SW10      29.95S FOG     WCI  26
SHELDON *      CLOUDY    34  34 100 SW15      29.93F WCI  24
SIOUX CITY     CLOUDY    35  34  96 S3        29.98F
SPENCER        CLOUDY    33  33 100 S17       29.96F FOG     WCI  22
STORM LAKE *   FOG       32  32 100 SW8       29.96F VSB 1/2 WCI  25
$$

IAZ055>058-069>071-079>083-090>094-041100-
   SOUTHWEST IOWA

CITY           SKY/WX    TMP DP  RH WIND       PRES   REMARKS
ATLANTIC *     CLOUDY    34  34 100 SW8       30.00F FOG     WCI  27
AUDUBON *      MIX PCPN  34  30  86 S7        29.99F WCI  28
CLARINDA *       N/A     39  39 100 S8        30.03F FOG     WCI  34
COUNCIL BLFS * CLOUDY    34  34 100 SW6       30.00F FOG     WCI  29
CRESTON *      MIX PCPN  36  36 100 S14       30.03F WCI  27
HARLAN  *      CLOUDY    34  34 100 SW9       30.03F WCI  26
LAMONI         LGT RAIN  37  35  92 S8        30.04F WCI  31
RED OAK *      CLOUDY    36  36 100 SW12      30.02F WCI  27
SHENANDOAH *   CLOUDY    37  36  93 W9        30.03F WCI  31
$$

IAZ047>049-059>061-072>074-084-041100-
   CENTRAL IOWA

CITY           SKY/WX    TMP DP  RH WIND       PRES   REMARKS
AMES           LGT SNOW  33  33 100 SE12      30.03F VSB 1   WCI  24
ANKENY *       LGT SNOW  32  32 100 S6        30.05F WCI  26
BOONE *        LGT SNOW  32  32 100 S13       30.00F VSB 1   WCI  22
CHARITON *       N/A     36  34  93 S14       30.04F FOG     WCI  27
DES MOINES     LGT SNOW  37  35  92 S10       30.04F FOG     WCI  30
GRINNELL*      LGT SNOW  33  32  98 SE12      30.06F WCI  24
KNOXVILLE *    CLOUDY    36  34  93 S10G17    30.04F FOG     WCI  28
MARSHALLTOWN   LGT SNOW  33  33 100 SE14      30.04F VSB 1   WCI  23
NEWTON *       FOG       32  32 100 SE10      30.05F VSB 3/4 WCI  24
PELLA *        LGT RAIN  36  34  94 S9        30.07F WCI  29
PERRY *        LGT SNOW  33  33 100 S7        30.01F WCI  27
$$

IAZ004>006-015-016-023>025-035-036-041100-
   NORTH CENTRAL IOWA

CITY           SKY/WX    TMP DP  RH WIND       PRES   REMARKS
ALGONA *       LGT SNOW  34  34 100 S10G16    29.97F WCI  26
CLARION *      CLOUDY    34  34 100 SE15      29.99F FOG     WCI  24
ESTHERVILLE    CLOUDY    32  32 100 S12       29.95F FOG     WCI  23
FORT DODGE *   CLOUDY    34  30  86 S9        30.00F WCI  26
MASON CITY     LGT SNOW  32  31  96 SE15      30.02F FOG     WCI  22
FOREST CITY *  LGT SNOW  32  32 100 SE10      29.99F WCI  24
WEBSTER CITY * LGT SNOW  34  34 100 S15       29.98F WCI  24
IOWA FALLS *   LGT SNOW  33  32  96 SE13      30.03F WCI  24
$$

IAZ007>011-017>019-026>030-037>042-050>054-066-041100-
   NORTHEAST IOWA

CITY           SKY/WX    TMP DP  RH WIND       PRES   REMARKS
CEDAR RAPIDS   LGT SNOW  32  32 100 SE9       30.09F FOG     WCI  24
CHARLES CITY * LGT SNOW  32  32 100 SE14      30.04F VSB 3/4 WCI  22
CLINTON *      FLURRIES  32  28  85 S10       30.17S WCI  24
DECORAH *      LGT SNOW  32  30  93 SE7G14    30.06F VSB 1   WCI  26
DUBUQUE        LGT SNOW  30  29  96 SE9       30.13F FOG     WCI  22
MONTICELLO *   MIX PCPN  32  30  93 SE8       30.13S WCI  25
OELWEIN *      LGT SNOW  32  32 100 SE15      30.08F VSB 1   WCI  22
WATERLOO       LGT SNOW  33  31  92 SE14G22   30.06F FOG     WCI  23
$$

IAZ064-065-067-068-078-041100-
   EAST CENTRAL IOWA

CITY           SKY/WX    TMP DP  RH WIND       PRES   REMARKS
DAVENPORT      CLOUDY    34  27  75 SE8       30.16F WCI  27
IOWA CITY      LGT SNOW  34  31  88 SE10      30.13F FOG     WCI  26
MUSCATINE *    MIX PCPN  36  30  80 SE6       30.15F WCI  31
QUAD CITIES    CLOUDY    35  28  75 SE8       30.15F WCI  29
$$

IAZ062-063-075>077-085>089-095>099-041100-
   SOUTHEAST IOWA

CITY           SKY/WX    TMP DP  RH WIND       PRES   REMARKS
BURLINGTON     LGT SNOW  33  32  96 SE9       30.13F FOG     WCI  25
FAIRFIELD *    CLOUDY    36  32  87 SE12      30.09F FOG     WCI  27
FORT MADISON * LGT RAIN  34  32  93 E6        30.14F WCI  29
KEOKUK *       MIX PCPN  36  34  93 E5        30.12F WCI  32
OSKALOOSA *    LGT RAIN  35  33  94 S16       30.08F WCI  24
CENTERVILLE *  MIX PCPN  34  32  93 SE8       30.08F WCI  27
OTTUMWA        LGT SNOW  35  32  88 S12       30.08F FOG     WCI  27
WASHINGTON *   MIX PCPN  34  32  93 SE12      30.11F WCI  25
$$

ABBREVIATIONS USED IN REMARKS
   TC - TEMPERATURES IN CELSIUS
  WCI - WIND CHILL INDEX
   HX - HEAT INDEX
  VSB - VISIBILITY
$$





USA.gov is the U.S. government's official web portal to all federal, state and local government web resources and services.